TimeCST,TemperatureF,Dew PointF,Humidity,Sea Level PressureIn,VisibilityMPH,Wind Direction,Wind SpeedMPH,Gust SpeedMPH,PrecipitationIn,Events,Conditions,WindDirDegrees,DateUTC
12:54 AM,21.9,14.0,72,30.30,10.0,NNW,6.9,-,N/A,,Partly Cloudy,330,2013-02-16 06:54:00
1:54 AM,21.0,12.9,71,30.29,10.0,NNW,6.9,-,N/A,,Partly Cloudy,330,2013-02-16 07:54:00
2:54 AM,19.9,12.0,71,30.28,10.0,WNW,4.6,-,N/A,,Clear,300,2013-02-16 08:54:00
3:54 AM,19.9,12.0,71,30.28,10.0,NW,6.9,-,N/A,,Clear,320,2013-02-16 09:54:00
4:54 AM,19.0,12.0,74,30.29,10.0,NNW,8.1,-,N/A,,Clear,340,2013-02-16 10:54:00
5:54 AM,17.6,12.2,79,30.25,10.0,NNW,6.9,-,N/A,,Clear,330,2013-02-16 11:54:00
6:54 AM,18.0,12.0,78,30.30,10.0,NW,8.1,-,N/A,,Clear,320,2013-02-16 12:54:00
7:54 AM,19.9,12.9,74,30.32,10.0,WNW,5.8,-,N/A,,Clear,300,2013-02-16 13:54:00
8:54 AM,21.9,12.9,68,30.33,10.0,NW,8.1,-,N/A,,Clear,320,2013-02-16 14:54:00
9:54 AM,26.1,14.0,60,30.32,10.0,WNW,6.9,-,N/A,,Clear,290,2013-02-16 15:54:00
10:54 AM,28.9,12.0,49,30.30,10.0,Variable,5.8,-,N/A,,Clear,0,2013-02-16 16:54:00
11:54 AM,30.9,12.0,46,30.28,10.0,SW,6.9,-,N/A,,Clear,230,2013-02-16 17:54:00
12:54 PM,34.0,12.0,40,30.25,10.0,Variable,5.8,-,N/A,,Clear,0,2013-02-16 18:54:00
1:05 PM,34.0,12.0,40,30.21,10.0,NW,12.7,-,N/A,,Clear,310,2013-02-16 19:05:00
1:54 PM,36.0,12.0,37,30.22,10.0,West,8.1,17.3,N/A,,Clear,280,2013-02-16 19:54:00
2:54 PM,36.0,12.9,39,30.20,10.0,WSW,5.8,-,N/A,,Clear,250,2013-02-16 20:54:00
3:54 PM,36.0,10.9,36,30.20,10.0,WSW,8.1,-,N/A,,Clear,240,2013-02-16 21:54:00
4:54 PM,36.0,12.0,37,30.19,10.0,West,6.9,-,N/A,,Clear,270,2013-02-16 22:54:00
5:54 PM,30.9,12.9,47,30.19,10.0,West,8.1,-,N/A,,Clear,260,2013-02-16 23:54:00
6:54 PM,30.9,14.0,50,30.20,10.0,West,4.6,-,N/A,,Clear,270,2013-02-17 00:54:00
7:54 PM,30.9,15.1,52,30.20,10.0,West,3.5,-,N/A,,Overcast,270,2013-02-17 01:54:00
8:54 PM,30.9,16.0,54,30.19,10.0,West,3.5,-,N/A,,Overcast,270,2013-02-17 02:54:00
9:54 PM,30.0,19.9,66,30.19,10.0,South,3.5,-,N/A,,Overcast,190,2013-02-17 03:54:00
10:54 PM,30.0,17.1,59,30.18,10.0,SE,4.6,-,N/A,,Overcast,140,2013-02-17 04:54:00
11:54 PM,30.0,19.0,64,30.16,10.0,SE,4.6,-,N/A,,Overcast,140,2013-02-17 05:54:00